Weather History for KOSC - September, 2013

Change the Weather History Date:

Monday, September 23, 2013

  Actual Average Record
Temperature  
Mean Temperature 50 °F -  
Max Temperature 61 °F 64 °F 84 °F (2004)
Min Temperature 40 °F 45 °F 35 °F (1998)
Degree Days  
Heating Degree Days 14    
Moisture  
Dew Point 42 °F    
Average Humidity 74    
Maximum Humidity 92    
Minimum Humidity 54    
Precipitation  
Precipitation 0.00 in - - ()
Sea Level Pressure  
Sea Level Pressure 30.16 in    
Wind  
Wind Speed 2 mph (NE)    
Max Wind Speed 8 mph    
Max Gust Speed -    
Visibility 10 miles    
Events      
Averages and records for this station are not official NWS values.
T = Trace of Precipitation, MM = Missing Value Source: NWS Daily Summary

Daily Weather History Graph

Daily Weather History Graph

Search for Another Location

Airport or City:

Trip Planner

Search our weather history database for the weather conditions in past years. The results will help you decide how hot, cold, wet, or windy it might be!

Date:

Astronomy

Sep. 23, 2013 Rise Set
Actual Time 7:22 AM EDT 7:28 PM EDT
Civil Twilight 6:53 AM EDT 7:57 PM EDT
Nautical Twilight 6:19 AM EDT 8:31 PM EDT
Astronomical Twilight 5:44 AM EDT 9:06 PM EDT
Moon 9:49 PM EDT (9/23) 11:51 AM EDT (9/23)
Length of Visible Light 13h 04m
Length of Day
12h 06m
Waning Gibbous, 81% of the Moon is Illuminated
Sep 23
Waning Gibbous
Sep 26
Last Quarter
Oct 4
New
Oct 11
First Quarter
Oct 18
Full

Hourly Weather History & Observations

Time (EDT) Temp. Windchill Dew Point Humidity Pressure Visibility Wind Dir Wind Speed Gust Speed Precip Events Conditions
12:14 AM 42.1 °F - 39.7 °F 91% 30.11 in 10.0 mi Calm Calm - N/A   Overcast
12:33 AM 43.5 °F - 40.1 °F 88% 30.11 in 10.0 mi Calm Calm - N/A   Overcast
12:54 AM 43.7 °F - 40.1 °F 87% 30.11 in 10.0 mi Calm Calm - N/A   Overcast
1:14 AM 44.1 °F - 40.6 °F 88% 30.11 in 10.0 mi Calm Calm - N/A   Overcast
1:33 AM 44.6 °F - 40.8 °F 87% 30.11 in 10.0 mi Calm Calm - N/A   Overcast
1:54 AM 44.8 °F - 40.6 °F 85% 30.11 in 10.0 mi Calm Calm - N/A   Overcast
2:14 AM 44.8 °F 43.3 °F 40.3 °F 84% 30.11 in 10.0 mi NW 3.5 mph - N/A   Overcast
2:33 AM 44.2 °F - 40.5 °F 87% 30.12 in 10.0 mi Calm Calm - N/A   Overcast
2:54 AM 44.8 °F - 39.7 °F 82% 30.12 in 10.0 mi Calm Calm - N/A   Overcast
3:14 AM 44.8 °F - 39.7 °F 82% 30.13 in 10.0 mi Calm Calm - N/A   Overcast
3:33 AM 45.0 °F - 39.7 °F 82% 30.13 in 10.0 mi Calm Calm - N/A   Overcast
3:54 AM 45.3 °F - 39.7 °F 81% 30.13 in 10.0 mi Calm Calm - N/A   Overcast
4:13 AM 45.5 °F - 39.4 °F 79% 30.13 in 10.0 mi Calm Calm - N/A   Overcast
4:33 AM 45.1 °F - 39.7 °F 81% 30.13 in 10.0 mi Calm Calm - N/A   Overcast
4:54 AM 45.1 °F - 39.4 °F 80% 30.13 in 10.0 mi Calm Calm - N/A   Overcast
5:13 AM 45.0 °F - 39.4 °F 81% 30.13 in 10.0 mi Calm Calm - N/A   Overcast
5:33 AM 45.0 °F - 39.4 °F 81% 30.14 in 10.0 mi Calm Calm - N/A   Overcast
5:54 AM 44.8 °F - 39.4 °F 81% 30.14 in 10.0 mi Calm Calm - N/A   Overcast
6:13 AM 44.8 °F 42.4 °F 39.7 °F 82% 30.14 in 10.0 mi NW 4.6 mph - N/A   Overcast
6:34 AM 44.8 °F - 39.9 °F 83% 30.15 in 10.0 mi Calm Calm - N/A   Overcast
6:54 AM 44.8 °F 42.4 °F 40.1 °F 84% 30.15 in 10.0 mi NNW 4.6 mph - N/A   Overcast
7:13 AM 44.8 °F 42.4 °F 40.1 °F 84% 30.16 in 10.0 mi NW 4.6 mph - N/A   Overcast
7:33 AM 45.0 °F 42.6 °F 40.5 °F 84% 30.16 in 10.0 mi NW 4.6 mph - N/A   Overcast
7:54 AM 45.7 °F 42.7 °F 40.3 °F 81% 30.17 in 10.0 mi NW 5.8 mph - N/A   Overcast
8:13 AM 46.2 °F 43.3 °F 40.5 °F 80% 30.18 in 10.0 mi NW 5.8 mph - N/A   Overcast
8:33 AM 46.6 °F - 40.6 °F 80% 30.18 in 10.0 mi NW 5.8 mph - N/A   Overcast
8:54 AM 47.5 °F - 41.2 °F 79% 30.18 in 10.0 mi NNW 5.8 mph - N/A   Overcast
9:13 AM 48.2 °F - 41.2 °F 77% 30.18 in 10.0 mi NW 6.9 mph - N/A   Overcast
9:34 AM 49.6 °F - 41.7 °F 74% 30.18 in 10.0 mi NW 5.8 mph - N/A   Overcast
9:54 AM 50.7 °F - 42.1 °F 72% 30.18 in 10.0 mi NW 5.8 mph - N/A   Overcast
10:13 AM 51.6 °F - 42.4 °F 71% 30.19 in 10.0 mi North 3.5 mph - N/A   Overcast
10:34 AM 52.2 °F - 42.8 °F 70% 30.20 in 10.0 mi NW 3.5 mph - N/A   Overcast
10:54 AM 52.7 °F - 43.0 °F 70% 30.20 in 10.0 mi NW 3.5 mph - N/A   Overcast
11:13 AM 53.6 °F - 43.5 °F 69% 30.20 in 10.0 mi North 4.6 mph - N/A   Overcast
11:34 AM 54.3 °F - 43.3 °F 66% 30.20 in 10.0 mi NNW 4.6 mph - N/A   Overcast
11:54 AM 55.4 °F - 43.0 °F 63% 30.20 in 10.0 mi North 4.6 mph - N/A   Overcast
12:13 PM 55.8 °F - 42.8 °F 62% 30.20 in 10.0 mi North 3.5 mph - N/A   Overcast
12:34 PM 56.5 °F - 42.3 °F 59% 30.20 in 10.0 mi Calm Calm - N/A   Overcast
12:54 PM 57.2 °F - 41.9 °F 57% 30.20 in 10.0 mi Calm Calm - N/A   Overcast
1:13 PM 57.7 °F - 41.7 °F 55% 30.19 in 10.0 mi ENE 3.5 mph - N/A   Overcast
1:34 PM 58.5 °F - 42.6 °F 56% 30.19 in 10.0 mi ESE 6.9 mph - N/A   Overcast
1:53 PM 58.3 °F - 43.0 °F 57% 30.19 in 10.0 mi ENE 4.6 mph - N/A   Overcast
2:13 PM 59.7 °F - 43.3 °F 55% 30.19 in 10.0 mi ESE 5.8 mph - N/A   Mostly Cloudy
2:34 PM 61.2 °F - 44.4 °F 54% 30.18 in 10.0 mi East 8.1 mph - N/A   Mostly Cloudy
2:53 PM 60.6 °F - 44.1 °F 54% 30.18 in 10.0 mi ENE 8.1 mph - N/A   Mostly Cloudy
3:13 PM 60.6 °F - 43.9 °F 54% 30.18 in 10.0 mi ESE 6.9 mph - N/A   Clear
3:34 PM 59.9 °F - 43.3 °F 54% 30.17 in 10.0 mi East 5.8 mph - N/A   Clear
3:53 PM 60.1 °F - 43.5 °F 54% 30.17 in 10.0 mi East 6.9 mph - N/A   Clear
4:13 PM 60.1 °F - 43.9 °F 55% 30.16 in 10.0 mi East 6.9 mph - N/A   Clear
4:34 PM 59.0 °F - 43.7 °F 57% 30.16 in 10.0 mi ENE 5.8 mph - N/A   Clear
4:53 PM 59.4 °F - 43.3 °F 55% 30.16 in 10.0 mi East 8.1 mph - N/A   Clear
5:13 PM 59.0 °F - 43.2 °F 56% 30.16 in 10.0 mi East 5.8 mph - N/A   Clear
5:34 PM 58.6 °F - 43.3 °F 57% 30.16 in 10.0 mi ESE 5.8 mph - N/A   Clear
5:53 PM 58.3 °F - 43.2 °F 57% 30.16 in 10.0 mi ESE 5.8 mph - N/A   Clear
6:13 PM 57.9 °F - 43.2 °F 58% 30.16 in 10.0 mi ESE 4.6 mph - N/A   Clear
6:34 PM 57.2 °F - 43.9 °F 61% 30.16 in 10.0 mi East 5.8 mph - N/A   Clear
6:53 PM 56.8 °F - 43.3 °F 61% 30.16 in 10.0 mi ESE 5.8 mph - N/A   Clear
7:14 PM 56.1 °F - 43.7 °F 63% 30.16 in 10.0 mi ESE 4.6 mph - N/A   Clear
7:34 PM 55.4 °F - 44.6 °F 67% 30.16 in 10.0 mi East 3.5 mph - N/A   Clear
7:53 PM 55.0 °F - 44.8 °F 68% 30.15 in 10.0 mi Calm Calm - N/A   Clear
8:14 PM 54.5 °F - 44.8 °F 70% 30.15 in 10.0 mi ESE 3.5 mph - N/A   Clear
8:34 PM 49.5 °F - 44.1 °F 82% 30.15 in 10.0 mi Calm Calm - N/A   Scattered Clouds
8:53 PM 47.3 °F - 42.8 °F 84% 30.15 in 10.0 mi Calm Calm - N/A   Clear
9:14 PM 44.4 °F - 41.5 °F 90% 30.15 in 10.0 mi Calm Calm - N/A   Clear
9:34 PM 43.7 °F - 40.6 °F 89% 30.15 in 10.0 mi Calm Calm - N/A   Clear
9:53 PM 43.2 °F - 41.0 °F 92% 30.15 in 10.0 mi Calm Calm - N/A   Clear
10:14 PM 42.6 °F - 39.7 °F 90% 30.15 in 10.0 mi Calm Calm - N/A   Clear
10:34 PM 42.1 °F - 38.8 °F 88% 30.15 in 10.0 mi Calm Calm - N/A   Clear
10:53 PM 41.2 °F - 39.0 °F 92% 30.16 in 10.0 mi Calm Calm - N/A   Clear
11:14 PM 41.4 °F - 38.8 °F 91% 30.16 in 10.0 mi Calm Calm - N/A   Clear
11:33 PM 40.8 °F - 38.5 °F 91% 30.16 in 10.0 mi Calm Calm - N/A   Clear
11:53 PM 40.6 °F - 37.9 °F 90% 30.16 in 10.0 mi Calm Calm - N/A   Clear